Regional Weather Roundup
Issued by NWS Newport/Morehead, NC

Current Version | Previous Version | Text Only | Print | Product List | Glossary On
Versions: 1 2 3 4 5 6 7 8 9 10 11 12 13 14 15 16 17 18 19 20 21 22 23 24 25 26 27 28 29 30 31 32 33 34 35 36 37 38 39 40 41 42 43 44 45 46 47 48 49 50
000 ASUS42 KMHX 262125 RWRMHX WEATHER ROUNDUP FOR EASTERN NORTH CAROLINA NATIONAL WEATHER SERVICE NEWPORT/MOREHEAD CITY NC 500 PM EDT MON SEP 26 2016 NOTE: "FAIR" INDICATES FEW OR NO CLOUDS BELOW 12,000 FEET WITH NO SIGNIFICANT WEATHER AND/OR OBSTRUCTIONS TO VISIBILITY NCZ015>017-031-032-045>047-102-103-262200- NORTH COAST CITY SKY/WX TMP DP RH WIND PRES REMARKS EDENTON NOT AVBL ELIZABETH CITY CLOUDY 75 64 68 E7 30.06F KITTY HAWK CLEAR 80 68 65 S5 30.05S MANTEO SUNNY 76 64 64 SW9 30.07S $$ NCZ045>047-081-094-103-104-262200- CENTRAL COAST CITY SKY/WX TMP DP RH WIND PRES REMARKS FRISCO SUNNY 81 62 52 SE12 30.06F $$ NCZ095-097-098-100-101-262200- SOUTHERN COAST CITY SKY/WX TMP DP RH WIND PRES REMARKS BEAUFORT SUNNY 79 68 69 SE7 30.04F CEDAR ISLAND NOT AVBL JACKSONVILLE MOSUNNY 80 66 62 SE8 30.03F PINEY ISLAND CLEAR N/A N/A N/A E12 30.04F WILMINGTON SUNNY 79 66 64 E8 30.04S $$ NCZ011>013-027>030-043-044-078>080-089-090>093-098-262200- COASTAL PLAIN CITY SKY/WX TMP DP RH WIND PRES REMARKS AHOSKIE MOSUNNY 73 64 72 SE3 30.05F CLINTON MOSUNNY 82 68 63 CALM 30.03F ELIZABETHTOWN MOSUNNY 82 68 63 E6 30.02F GOLDSBORO CLOUDY 81 66 60 SE5 30.02F GREENVILLE CLOUDY 77 63 61 SE6 30.06F HAVELOCK CLOUDY 78 67 68 NE7 30.05F KENANSVILLE MOSUNNY 81 66 61 CALM 30.03F KINSTON PTSUNNY 79 63 57 E5 30.05F NEW BERN PTSUNNY 78 64 61 E6 30.06F RICHLANDS SUNNY 81 66 60 E5 30.03F ROCKY MOUNT PTSUNNY 76 65 68 VRB3 30.04F WASHINGTON PTSUNNY 76 63 63 SE3 30.06S WHITEVILLE NOT AVBL $$ AMZ130-135-150-152-154-156-158-170-250-252-270-ANZ085-086-088-633-658-670-262200- MARINE OBSERVATIONS STATION/POSITION TIME TEMP WIND PRES WAVE SWELL AIR SEA DIR/SP/G HT/PER HT/PER (UTC) (F) (DEG/KT/KT) (MB) (FT/S) (FT/S) CHESAPEAKE LIGHT NOT AVBL 64 E VA BEACH 2050 75 76 160/ 16/ 17 1017.7 3/ 9 2/ 9 DUCK 2100 75 77 140/ 9/ 11 1017.2 2 E DUCK 2041 77 N/A 3/ 9 OREGON INLET 2100 78 77 130/ 4/ 9 1017.9 13E OREGON INLT 2100 78 N/A 3/ 9 3/ 9 HATTERAS CG 2100 78 77 110/ 7/ 10 1017.4 DIAMOND BUOY 2050 78 79 130/ 10/ 12 1017.7 3/ 8 2/ 8 CAPE LOOKOUT 2100 77 90/ 10/ 11 1017.0 BEAUFORT LAB 2100 77 77 130/ 7/ 9 1016.7 30 SE NEW RVR IN 2108 79 83 80/ 10/ 16 1016.9 30 SE NEW RVR IN 2055 83 N/A 3/ 9 27 SE WRIGHTSVLE 2108 79 81 80/ 12/ 16 1016.9 5 SE WRIGHTSVLE 2008 78 81 100/ 12/ 16 1018.1 225 S CAPE HAT 2050 79 83 90/ 16/ 17 1016.4 5/ 8 3/ 8 41 SE CHARLESTON 2050 76 82 100/ 14/ 16 1015.1 3/ 6 2/ 7 $$

USA.gov is the U.S. government's official web portal to all federal, state and local government web resources and services.